Weather History for Falfurrias, TX

Change the Weather History Date:

Saturday, August 3, 2013

  Actual Average (KNQI) Record (KNQI)
Temperature  
Mean Temperature 88 °F -  
Max Temperature 103 °F 95 °F 100 °F (1996)
Min Temperature 73 °F 74 °F 71 °F (2000)
Cooling Degree Days 22    
Growing Degree Days 38 (Base 50)    
Moisture  
Dew Point 74 °F    
Average Humidity 68    
Maximum Humidity 95    
Minimum Humidity 31    
Precipitation  
Precipitation 0.00 in - - ()
Sea Level Pressure  
Sea Level Pressure 29.96 in    
Wind  
Wind Speed 7 mph (SE)    
Max Wind Speed 18 mph    
Max Gust Speed 25 mph    
Visibility 10 miles    
Events      
Averages and records for this station are not official NWS values.
T = Trace of Precipitation, MM = Missing Value Source: NWS Daily Summary

Daily Weather History Graph

Daily Weather History Graph

Search for Another Location

Airport:

Trip Planner

Search our weather history database for the weather conditions in past years. The results will help you decide how hot, cold, wet, or windy it might be!

Date:

Astronomy

Aug. 03, 2013 Rise Set
Actual Time 6:57 AM CDT 8:19 PM CDT
Civil Twilight 6:32 AM CDT 8:44 PM CDT
Nautical Twilight 6:02 AM CDT 9:13 PM CDT
Astronomical Twilight 5:31 AM CDT 9:44 PM CDT
Moon 4:11 AM CDT (8/3) 6:00 PM CDT (8/3)
Length of Visible Light 14h 11m
Length of Day
13h 21m
Waning Crescent, 9% of the Moon is Illuminated
Aug 3
Waning Crescent
Aug 6
New
Aug 14
First Quarter
Aug 20
Full
Aug 28
Last Quarter

Hourly Weather History & Observations

Time (CDT) Temp. Heat Index Dew Point Humidity Pressure Visibility Wind Dir Wind Speed Gust Speed Precip Events Conditions
12:15 AM 83.3 °F 92.1 °F 76.6 °F 80% 29.97 in 10.0 mi SE 6.9 mph - N/A   Clear
12:35 AM 83.1 °F 92.3 °F 77.0 °F 82% 29.96 in 10.0 mi SE 6.9 mph - N/A   Clear
12:55 AM 82.6 °F 91.1 °F 77.0 °F 83% 29.97 in 10.0 mi SE 6.9 mph - N/A   Clear
1:15 AM 82.2 °F 90.4 °F 77.0 °F 84% 29.97 in 10.0 mi SE 5.8 mph - N/A   Clear
1:35 AM 81.7 °F 89.5 °F 77.0 °F 86% 29.97 in 10.0 mi SE 4.6 mph - N/A   Clear
1:55 AM 81.1 °F 88.2 °F 76.8 °F 87% 29.97 in 10.0 mi SE 3.5 mph - N/A   Clear
2:15 AM 80.6 °F 86.8 °F 76.5 °F 87% 29.96 in 10.0 mi SE 4.6 mph - N/A   Clear
2:35 AM 79.7 °F - 76.1 °F 89% 29.97 in 10.0 mi SSE 3.5 mph - N/A   Clear
2:55 AM 78.8 °F - 75.7 °F 90% 29.97 in 10.0 mi SSE 3.5 mph - N/A   Clear
3:15 AM 78.1 °F - 75.4 °F 91% 29.97 in 10.0 mi SSE 3.5 mph - N/A   Clear
3:35 AM 77.5 °F - 75.0 °F 92% 29.96 in 10.0 mi SSE 3.5 mph - N/A   Clear
3:55 AM 77.0 °F - 74.5 °F 92% 29.96 in 10.0 mi SSE 3.5 mph - N/A   Clear
4:15 AM 76.6 °F - 74.3 °F 92% 29.96 in 10.0 mi Calm Calm - N/A   Clear
4:35 AM 76.6 °F - 74.5 °F 93% 29.95 in 10.0 mi Calm Calm - N/A   Clear
4:55 AM 76.5 °F - 74.3 °F 93% 29.95 in 10.0 mi Calm Calm - N/A   Scattered Clouds
5:15 AM 75.9 °F - 73.8 °F 93% 29.96 in 7.0 mi Calm Calm - N/A   Clear
5:35 AM 75.2 °F - 73.4 °F 94% 29.96 in 7.0 mi Calm Calm - N/A   Scattered Clouds
5:55 AM 74.3 °F - 72.5 °F 94% 29.96 in 5.0 mi Calm Calm - N/A   Scattered Clouds
6:15 AM 74.3 °F - 72.5 °F 94% 29.96 in 7.0 mi Calm Calm - N/A   Clear
6:35 AM 74.3 °F - 72.5 °F 94% 29.96 in 7.0 mi Calm Calm - N/A   Clear
6:55 AM 73.4 °F - 72.0 °F 95% 29.96 in 5.0 mi Calm Calm - N/A   Clear
7:15 AM 73.4 °F - 72.0 °F 95% 29.97 in 3.0 mi East 3.5 mph - N/A   Unknown
7:35 AM 74.1 °F - 72.7 °F 95% 29.97 in 4.0 mi Calm Calm - N/A   Mostly Cloudy
7:55 AM 75.0 °F - 73.4 °F 95% 29.97 in 7.0 mi Calm Calm - N/A   Overcast
8:15 AM 75.6 °F - 73.6 °F 94% 29.98 in 10.0 mi ESE 3.5 mph - N/A   Scattered Clouds
8:35 AM 77.4 °F - 74.3 °F 90% 29.98 in 10.0 mi East 3.5 mph - N/A   Clear
8:55 AM 81.0 °F 86.2 °F 73.8 °F 79% 29.98 in 10.0 mi SE 4.6 mph - N/A   Clear
9:15 AM 83.8 °F 90.8 °F 73.8 °F 72% 29.98 in 10.0 mi SSE 8.1 mph - N/A   Clear
9:35 AM 85.3 °F 93.4 °F 74.3 °F 70% 29.98 in 10.0 mi SSE 11.5 mph - N/A   Clear
9:55 AM 86.4 °F 95.1 °F 74.5 °F 68% 29.98 in 10.0 mi SSE 10.4 mph - N/A   Clear
10:15 AM 88.2 °F 96.9 °F 74.1 °F 63% 29.99 in 10.0 mi SSE 8.1 mph - N/A   Scattered Clouds
10:35 AM 89.1 °F 98.0 °F 74.1 °F 61% 29.99 in 10.0 mi SSE 11.5 mph 18.4 mph N/A   Scattered Clouds
10:55 AM 90.0 °F 98.5 °F 73.4 °F 58% 29.98 in 10.0 mi SE 11.5 mph - N/A   Clear
11:15 AM 91.6 °F 99.9 °F 72.9 °F 54% 29.98 in 10.0 mi SSE 10.4 mph - N/A   Scattered Clouds
11:35 AM 93.0 °F 100.7 °F 72.0 °F 50% 29.98 in 10.0 mi South 10.4 mph - N/A   Scattered Clouds
11:55 AM 93.0 °F 100.7 °F 71.6 °F 50% 29.98 in 10.0 mi SE 9.2 mph 17.3 mph N/A   Scattered Clouds
12:15 PM 94.1 °F 101.2 °F 71.2 °F 47% 29.98 in 10.0 mi SE 9.2 mph - N/A   Scattered Clouds
12:35 PM 94.6 °F 101.1 °F 70.2 °F 45% 29.97 in 10.0 mi SSE 11.5 mph 18.4 mph N/A   Clear
12:55 PM 96.6 °F 102.1 °F 68.7 °F 40% 29.96 in 10.0 mi South 5.8 mph 17.3 mph N/A   Clear
1:15 PM 97.3 °F 102.3 °F 68.2 °F 38% 29.96 in 10.0 mi ESE 11.5 mph 20.7 mph N/A   Clear
1:35 PM 98.8 °F 103.2 °F 66.7 °F 35% 29.95 in 10.0 mi SE 11.5 mph 17.3 mph N/A   Scattered Clouds
2:15 PM 100.8 °F 105.6 °F 66.6 °F 33% 29.94 in 10.0 mi SE 5.8 mph 18.4 mph N/A   Scattered Clouds
2:35 PM 100.0 °F 104.9 °F 67.3 °F 34% 29.94 in 10.0 mi SSE 11.5 mph 16.1 mph N/A   Scattered Clouds
2:55 PM 101.1 °F 106.3 °F 66.7 °F 33% 29.93 in 10.0 mi SE 13.8 mph 17.3 mph N/A   Scattered Clouds
3:15 PM 101.3 °F 105.9 °F 66.6 °F 32% 29.92 in 10.0 mi SE 12.7 mph 18.4 mph N/A   Mostly Cloudy
3:35 PM 102.7 °F 108.0 °F 66.6 °F 31% 29.91 in 10.0 mi SSE 15.0 mph 19.6 mph N/A   Scattered Clouds
3:55 PM 100.4 °F 105.6 °F 67.5 °F 34% 29.91 in 10.0 mi ESE 10.4 mph 16.1 mph N/A   Scattered Clouds
4:15 PM 101.3 °F 110.5 °F 71.2 °F 38% 29.90 in 10.0 mi ESE 13.8 mph 20.7 mph N/A   Scattered Clouds
4:35 PM 100.2 °F 109.8 °F 72.1 °F 40% 29.90 in 10.0 mi SE 12.7 mph 19.6 mph N/A   Scattered Clouds
4:55 PM 100.2 °F 110.6 °F 72.3 °F 41% 29.90 in 10.0 mi SE 16.1 mph 21.9 mph N/A   Scattered Clouds
5:15 PM 99.7 °F 110.1 °F 72.9 °F 42% 29.90 in 10.0 mi ESE 16.1 mph 23.0 mph N/A   Clear
5:35 PM 98.6 °F 109.2 °F 73.4 °F 44% 29.91 in 10.0 mi ESE 15.0 mph 25.3 mph N/A   Clear
5:55 PM 97.7 °F 108.7 °F 73.8 °F 46% 29.91 in 10.0 mi ESE 16.1 mph 24.2 mph N/A   Clear
6:15 PM 97.2 °F 107.4 °F 73.4 °F 46% 29.90 in 10.0 mi ESE 18.4 mph 24.2 mph N/A   Scattered Clouds
6:35 PM 96.6 °F 107.6 °F 73.9 °F 48% 29.90 in 10.0 mi ESE 18.4 mph 25.3 mph N/A   Clear
6:55 PM 95.2 °F 106.4 °F 74.3 °F 51% 29.91 in 10.0 mi ESE 13.8 mph 23.0 mph N/A   Clear
7:15 PM 94.3 °F 104.9 °F 73.9 °F 52% 29.91 in 10.0 mi ESE 17.3 mph - N/A   Clear
7:35 PM 92.8 °F 103.4 °F 74.3 °F 55% 29.92 in 10.0 mi East 15.0 mph 23.0 mph N/A   Clear
7:55 PM 91.8 °F 101.5 °F 74.3 °F 56% 29.92 in 10.0 mi ESE 17.3 mph 21.9 mph N/A   Clear
8:15 PM 90.7 °F 101.3 °F 74.8 °F 60% 29.93 in 10.0 mi ESE 11.5 mph 19.6 mph N/A   Clear
8:35 PM 89.6 °F 100.4 °F 75.4 °F 63% 29.94 in 10.0 mi ESE 13.8 mph 20.7 mph N/A   Scattered Clouds
8:55 PM 88.9 °F 100.3 °F 76.1 °F 66% 29.94 in 10.0 mi ESE 12.7 mph 21.9 mph N/A   Scattered Clouds
9:15 PM 88.2 °F 99.0 °F 76.1 °F 67% 29.95 in 10.0 mi ESE 12.7 mph 16.1 mph N/A   Scattered Clouds
9:35 PM 87.6 °F 98.7 °F 76.5 °F 69% 29.96 in 10.0 mi ESE 12.7 mph 18.4 mph N/A   Clear
9:55 PM 86.9 °F 98.3 °F 77.0 °F 72% 29.97 in 10.0 mi ESE 13.8 mph 19.6 mph N/A   Scattered Clouds
10:15 PM 86.5 °F 98.3 °F 77.2 °F 74% 29.98 in 10.0 mi SE 10.4 mph - N/A   Clear
10:35 PM 86.2 °F 97.8 °F 77.4 °F 75% 29.99 in 10.0 mi SE 9.2 mph 16.1 mph N/A   Clear
10:55 PM 86.0 °F 97.3 °F 77.4 °F 75% 30.00 in 10.0 mi SE 8.1 mph - N/A   Clear
11:15 PM 85.5 °F 96.8 °F 77.4 °F 77% 30.01 in 10.0 mi SE 10.4 mph - N/A   Clear
11:35 PM 85.1 °F 96.2 °F 77.4 °F 78% 30.00 in 10.0 mi SE 9.2 mph 16.1 mph N/A   Clear
11:55 PM 84.9 °F 95.7 °F 77.5 °F 78% 30.00 in 10.0 mi SE 9.2 mph - N/A   Clear